Time,TemperatureF,DewpointF,PressureIn,WindDirection,WindDirectionDegrees,WindSpeedMPH,WindSpeedGustMPH,Humidity,HourlyPrecipIn,Conditions,Clouds,dailyrainin,SoftwareType,DateUTC
2013-11-06 00:01:00,40.6,18.9,31.03,WSW,253,2.0,3.0,41,0.00,,,0.00,meteohub,2013-11-06 05:01:00,
2013-11-06 00:02:00,40.6,18.9,31.03,WSW,252,2.0,3.0,41,0.00,,,0.00,meteohub,2013-11-06 05:02:00,
2013-11-06 00:03:00,40.6,19.4,31.03,WSW,253,3.0,3.0,42,0.00,,,0.00,meteohub,2013-11-06 05:03:00,
2013-11-06 00:04:00,40.6,19.4,31.03,WSW,253,3.0,3.0,42,0.00,,,0.00,meteohub,2013-11-06 05:04:00,
2013-11-06 00:07:00,40.6,18.9,31.03,WSW,252,3.0,3.0,41,0.00,,,0.00,meteohub,2013-11-06 05:07:00,
2013-11-06 00:12:00,40.8,18.9,31.03,WSW,252,2.0,4.0,41,0.00,,,0.00,meteohub,2013-11-06 05:12:00,
2013-11-06 00:18:00,40.8,19.6,31.03,WSW,252,3.0,4.0,42,0.00,,,0.00,meteohub,2013-11-06 05:18:00,
2013-11-06 00:23:00,40.6,19.4,31.03,WSW,252,3.0,4.0,42,0.00,,,0.00,meteohub,2013-11-06 05:23:00,
2013-11-06 00:28:00,40.8,19.6,31.03,WSW,253,3.0,4.0,42,0.00,,,0.00,meteohub,2013-11-06 05:28:00,
2013-11-06 00:34:00,41.0,19.0,31.03,WSW,252,3.0,4.0,41,0.00,,,0.00,meteohub,2013-11-06 05:34:00,
2013-11-06 00:39:00,41.2,19.8,31.03,WSW,253,3.0,4.0,42,0.00,,,0.00,meteohub,2013-11-06 05:39:00,
2013-11-06 00:44:00,41.2,19.8,31.03,WSW,253,3.0,3.0,42,0.00,,,0.00,meteohub,2013-11-06 05:44:00,
2013-11-06 00:49:00,41.2,19.8,31.03,WSW,252,3.0,4.0,42,0.00,,,0.00,meteohub,2013-11-06 05:49:00,
2013-11-06 00:54:00,41.2,19.8,31.03,WSW,252,3.0,4.0,42,0.00,,,0.00,meteohub,2013-11-06 05:54:00,
2013-11-06 01:00:00,41.0,20.3,31.03,WSW,252,3.0,4.0,43,0.00,,,0.00,meteohub,2013-11-06 06:00:00,
2013-11-06 01:05:00,41.0,19.6,31.03,WSW,252,3.0,4.0,42,0.00,,,0.00,meteohub,2013-11-06 06:05:00,
2013-11-06 01:10:00,40.8,20.1,31.03,WSW,253,0.0,4.0,43,0.00,,,0.00,meteohub,2013-11-06 06:10:00,
2013-11-06 01:15:00,40.6,19.4,31.03,WSW,252,2.0,3.0,42,0.00,,,0.00,meteohub,2013-11-06 06:15:00,
2013-11-06 01:20:00,40.5,19.2,31.03,WSW,252,3.0,4.0,42,0.00,,,0.00,meteohub,2013-11-06 06:20:00,
2013-11-06 01:26:00,40.5,19.8,31.03,WSW,252,3.0,4.0,43,0.00,,,0.00,meteohub,2013-11-06 06:26:00,
2013-11-06 01:31:00,40.5,19.8,31.03,WSW,253,3.0,4.0,43,0.00,,,0.00,meteohub,2013-11-06 06:31:00,
2013-11-06 01:36:00,40.5,19.8,31.03,WSW,253,2.0,3.0,43,0.00,,,0.00,meteohub,2013-11-06 06:36:00,
2013-11-06 01:41:00,40.8,20.1,31.03,WSW,252,3.0,3.0,43,0.00,,,0.00,meteohub,2013-11-06 06:41:00,
2013-11-06 01:46:00,41.0,20.3,31.03,WSW,252,3.0,4.0,43,0.00,,,0.00,meteohub,2013-11-06 06:46:00,
2013-11-06 01:52:00,41.2,20.3,31.03,WSW,252,2.0,4.0,43,0.00,,,0.00,meteohub,2013-11-06 06:52:00,
2013-11-06 01:57:00,41.2,20.3,31.03,WSW,252,0.0,4.0,43,0.00,,,0.00,meteohub,2013-11-06 06:57:00,
2013-11-06 02:02:00,41.2,20.3,31.03,WSW,252,2.0,4.0,43,0.00,,,0.00,meteohub,2013-11-06 07:02:00,
2013-11-06 02:07:00,41.2,20.8,31.03,WSW,252,3.0,3.0,44,0.00,,,0.00,meteohub,2013-11-06 07:07:00,
2013-11-06 02:12:00,41.2,20.3,31.03,WSW,253,3.0,3.0,43,0.00,,,0.00,meteohub,2013-11-06 07:12:00,
2013-11-06 02:17:00,41.0,20.8,31.03,WSW,252,2.0,3.0,44,0.00,,,0.00,meteohub,2013-11-06 07:17:00,
2013-11-06 02:22:00,41.0,20.8,31.03,WSW,252,0.0,3.0,44,0.00,,,0.00,meteohub,2013-11-06 07:22:00,
2013-11-06 02:28:00,41.0,20.8,31.03,WSW,252,3.0,3.0,44,0.00,,,0.00,meteohub,2013-11-06 07:28:00,
2013-11-06 02:33:00,41.0,20.8,31.03,WSW,252,3.0,3.0,44,0.00,,,0.00,meteohub,2013-11-06 07:33:00,
2013-11-06 02:38:00,40.8,21.2,31.03,WSW,252,3.0,3.0,45,0.00,,,0.00,meteohub,2013-11-06 07:38:00,
2013-11-06 02:43:00,41.0,20.8,31.03,WSW,253,2.0,3.0,44,0.00,,,0.00,meteohub,2013-11-06 07:43:00,
2013-11-06 02:48:00,40.8,21.2,31.03,WSW,253,3.0,3.0,45,0.00,,,0.00,meteohub,2013-11-06 07:48:00,
2013-11-06 02:53:00,41.0,20.8,31.03,WSW,252,3.0,4.0,44,0.00,,,0.00,meteohub,2013-11-06 07:53:00,
2013-11-06 02:59:00,41.0,20.8,31.03,WSW,252,3.0,4.0,44,0.00,,,0.00,meteohub,2013-11-06 07:59:00,
2013-11-06 03:04:00,40.6,21.0,31.03,WSW,253,2.0,4.0,45,0.00,,,0.00,meteohub,2013-11-06 08:04:00,
2013-11-06 03:09:00,40.6,21.0,31.03,WSW,252,2.0,3.0,45,0.00,,,0.00,meteohub,2013-11-06 08:09:00,
2013-11-06 03:14:00,40.5,20.8,31.03,WSW,252,3.0,3.0,45,0.00,,,0.00,meteohub,2013-11-06 08:14:00,
2013-11-06 03:19:00,40.5,20.8,31.03,WSW,252,0.0,4.0,45,0.00,,,0.00,meteohub,2013-11-06 08:19:00,
2013-11-06 03:25:00,40.5,20.8,31.03,WSW,252,0.0,4.0,45,0.00,,,0.00,meteohub,2013-11-06 08:25:00,
2013-11-06 03:30:00,40.3,20.7,31.03,WSW,253,3.0,4.0,45,0.00,,,0.00,meteohub,2013-11-06 08:30:00,
2013-11-06 03:35:00,40.3,20.7,31.03,WSW,253,3.0,4.0,45,0.00,,,0.00,meteohub,2013-11-06 08:35:00,
2013-11-06 03:40:00,40.1,20.5,31.03,WSW,252,0.0,4.0,45,0.00,,,0.00,meteohub,2013-11-06 08:40:00,
2013-11-06 03:46:00,39.9,20.3,31.03,WSW,252,4.0,4.0,45,0.00,,,0.00,meteohub,2013-11-06 08:46:00,
2013-11-06 03:51:00,39.6,19.9,31.03,WSW,253,4.0,4.0,45,0.00,,,0.00,meteohub,2013-11-06 08:51:00,
2013-11-06 03:56:00,39.4,19.8,31.03,WSW,252,3.0,4.0,45,0.00,,,0.00,meteohub,2013-11-06 08:56:00,
2013-11-06 04:01:00,39.2,19.6,31.03,WSW,253,3.0,4.0,45,0.00,,,0.00,meteohub,2013-11-06 09:01:00,
2013-11-06 04:06:00,39.2,19.6,31.03,WSW,252,3.0,4.0,45,0.00,,,0.00,meteohub,2013-11-06 09:06:00,
2013-11-06 04:11:00,39.2,19.6,31.03,WSW,252,3.0,4.0,45,0.00,,,0.00,meteohub,2013-11-06 09:11:00,
2013-11-06 04:17:00,39.0,19.4,31.03,WSW,253,3.0,3.0,45,0.00,,,0.00,meteohub,2013-11-06 09:17:00,
2013-11-06 04:22:00,38.8,19.4,31.03,WSW,252,3.0,3.0,45,0.00,,,0.00,meteohub,2013-11-06 09:22:00,
2013-11-06 04:27:00,38.8,19.4,31.03,WSW,252,3.0,3.0,45,0.00,,,0.00,meteohub,2013-11-06 09:27:00,
2013-11-06 04:32:00,38.8,19.4,31.03,WSW,252,3.0,3.0,45,0.00,,,0.00,meteohub,2013-11-06 09:32:00,
2013-11-06 04:37:00,38.8,19.4,31.03,WSW,252,2.0,4.0,45,0.00,,,0.00,meteohub,2013-11-06 09:37:00,
2013-11-06 04:42:00,38.8,19.8,31.03,WSW,252,3.0,4.0,46,0.00,,,0.00,meteohub,2013-11-06 09:42:00,
2013-11-06 04:47:00,39.0,19.9,31.03,WSW,252,4.0,4.0,46,0.00,,,0.00,meteohub,2013-11-06 09:47:00,
2013-11-06 04:52:00,39.2,20.1,31.03,WSW,252,3.0,4.0,46,0.00,,,0.00,meteohub,2013-11-06 09:52:00,
2013-11-06 04:58:00,39.2,20.1,31.03,WSW,253,3.0,4.0,46,0.00,,,0.00,meteohub,2013-11-06 09:58:00,
2013-11-06 05:03:00,39.2,20.1,31.03,WSW,253,4.0,4.0,46,0.00,,,0.00,meteohub,2013-11-06 10:03:00,
2013-11-06 05:08:00,39.4,20.3,31.03,West,266,2.0,4.0,46,0.00,,,0.00,meteohub,2013-11-06 10:08:00,
2013-11-06 05:14:00,39.6,20.5,31.03,West,266,0.0,4.0,46,0.00,,,0.00,meteohub,2013-11-06 10:14:00,
2013-11-06 05:19:00,39.7,21.2,31.03,West,266,3.0,4.0,47,0.00,,,0.00,meteohub,2013-11-06 10:19:00,
2013-11-06 05:24:00,39.9,21.4,31.03,West,266,4.0,4.0,47,0.00,,,0.00,meteohub,2013-11-06 10:24:00,
2013-11-06 05:29:00,39.9,21.4,31.03,West,267,3.0,4.0,47,0.00,,,0.00,meteohub,2013-11-06 10:29:00,
2013-11-06 05:35:00,39.9,21.4,31.03,West,267,4.0,4.0,47,0.00,,,0.00,meteohub,2013-11-06 10:35:00,
2013-11-06 05:40:00,39.9,21.4,31.03,West,267,3.0,4.0,47,0.00,,,0.00,meteohub,2013-11-06 10:40:00,
2013-11-06 05:45:00,40.3,22.1,31.03,West,267,4.0,4.0,48,0.00,,,0.00,meteohub,2013-11-06 10:45:00,
2013-11-06 05:50:00,40.3,22.6,31.03,West,267,3.0,4.0,49,0.00,,,0.00,meteohub,2013-11-06 10:50:00,
2013-11-06 05:55:00,40.6,23.0,31.03,West,267,2.0,4.0,49,0.00,,,0.00,meteohub,2013-11-06 10:55:00,
2013-11-06 06:01:00,40.8,23.2,31.03,West,267,3.0,4.0,49,0.00,,,0.00,meteohub,2013-11-06 11:01:00,
2013-11-06 06:06:00,41.0,23.4,31.03,West,267,0.0,4.0,49,0.00,,,0.00,meteohub,2013-11-06 11:06:00,
2013-11-06 06:11:00,41.2,23.5,31.03,West,267,0.0,4.0,49,0.00,,,0.00,meteohub,2013-11-06 11:11:00,
2013-11-06 06:16:00,41.4,23.7,31.03,West,267,0.0,4.0,49,0.00,,,0.00,meteohub,2013-11-06 11:16:00,
2013-11-06 06:22:00,41.5,23.7,31.03,West,267,0.0,4.0,49,0.00,,,0.00,meteohub,2013-11-06 11:22:00,
2013-11-06 06:27:00,41.5,23.7,31.03,West,267,0.0,4.0,49,0.00,,,0.00,meteohub,2013-11-06 11:27:00,
2013-11-06 06:32:00,41.7,23.9,31.03,West,267,0.0,4.0,49,0.00,,,0.00,meteohub,2013-11-06 11:32:00,
2013-11-06 06:37:00,41.7,23.9,31.03,West,267,0.0,2.0,49,0.00,,,0.00,meteohub,2013-11-06 11:37:00,
2013-11-06 06:42:00,41.9,24.1,31.03,West,267,0.0,2.0,49,0.00,,,0.00,meteohub,2013-11-06 11:42:00,
2013-11-06 06:47:00,41.9,24.1,31.03,West,267,0.0,0.0,49,0.00,,,0.00,meteohub,2013-11-06 11:47:00,
2013-11-06 06:52:00,42.1,24.3,31.03,West,267,0.0,3.0,49,0.00,,,0.00,meteohub,2013-11-06 11:52:00,
2013-11-06 06:57:00,42.1,24.3,31.03,West,267,0.0,3.0,49,0.00,,,0.00,meteohub,2013-11-06 11:57:00,
2013-11-06 07:02:00,42.3,24.4,31.03,West,267,0.0,3.0,49,0.00,,,0.00,meteohub,2013-11-06 12:02:00,
2013-11-06 07:07:00,42.4,24.6,31.03,West,267,0.0,3.0,49,0.00,,,0.00,meteohub,2013-11-06 12:07:00,
2013-11-06 07:12:00,42.8,25.0,31.03,West,267,0.0,0.0,49,0.00,,,0.00,meteohub,2013-11-06 12:12:00,
2013-11-06 07:18:00,43.2,25.3,31.03,West,267,0.0,0.0,49,0.00,,,0.00,meteohub,2013-11-06 12:18:00,
2013-11-06 07:23:00,43.5,25.7,31.03,West,267,0.0,0.0,49,0.00,,,0.00,meteohub,2013-11-06 12:23:00,
2013-11-06 07:28:00,43.7,25.7,31.03,West,267,0.0,0.0,49,0.00,,,0.00,meteohub,2013-11-06 12:28:00,
2013-11-06 07:33:00,44.1,26.6,31.03,West,267,0.0,0.0,50,0.00,,,0.00,meteohub,2013-11-06 12:33:00,
2013-11-06 07:38:00,44.2,26.8,31.03,West,267,0.0,0.0,50,0.00,,,0.00,meteohub,2013-11-06 12:38:00,
2013-11-06 07:44:00,44.6,26.6,31.03,West,267,0.0,0.0,49,0.00,,,0.00,meteohub,2013-11-06 12:44:00,
2013-11-06 07:49:00,44.8,26.8,31.03,West,267,0.0,0.0,49,0.00,,,0.00,meteohub,2013-11-06 12:49:00,
2013-11-06 07:54:00,45.1,27.1,31.03,West,267,0.0,0.0,49,0.00,,,0.00,meteohub,2013-11-06 12:54:00,
2013-11-06 07:59:00,45.3,27.3,31.03,West,267,0.0,0.0,49,0.00,,,0.00,meteohub,2013-11-06 12:59:00,
2013-11-06 08:05:00,45.5,27.9,31.03,West,267,0.0,0.0,50,0.00,,,0.00,meteohub,2013-11-06 13:05:00,
2013-11-06 08:10:00,46.4,28.8,31.03,West,267,0.0,0.0,50,0.00,,,0.00,meteohub,2013-11-06 13:10:00,
2013-11-06 08:15:00,47.3,30.0,31.03,West,267,0.0,0.0,51,0.00,,,0.00,meteohub,2013-11-06 13:15:00,
2013-11-06 08:20:00,47.8,30.6,31.03,West,267,0.0,0.0,51,0.00,,,0.00,meteohub,2013-11-06 13:20:00,
2013-11-06 08:26:00,48.9,32.0,31.03,West,267,0.0,0.0,52,0.00,,,0.00,meteohub,2013-11-06 13:26:00,
2013-11-06 08:31:00,49.6,33.3,31.03,West,267,0.0,0.0,53,0.00,,,0.00,meteohub,2013-11-06 13:31:00,
2013-11-06 08:36:00,50.4,32.9,31.03,West,267,0.0,3.0,51,0.00,,,0.00,meteohub,2013-11-06 13:36:00,
2013-11-06 08:41:00,51.1,33.1,31.03,SE,139,3.0,4.0,50,0.00,,,0.00,meteohub,2013-11-06 13:41:00,
2013-11-06 08:47:00,51.6,32.5,31.03,SE,146,3.0,4.0,48,0.00,,,0.00,meteohub,2013-11-06 13:47:00,
2013-11-06 08:52:00,52.0,32.4,31.03,SSE,160,3.0,5.0,47,0.00,,,0.00,meteohub,2013-11-06 13:52:00,
2013-11-06 08:57:00,52.3,32.2,31.03,ESE,110,6.0,6.0,46,0.00,,,0.00,meteohub,2013-11-06 13:57:00,
2013-11-06 09:02:00,52.9,29.3,31.03,East,99,6.0,8.0,40,0.00,,,0.00,meteohub,2013-11-06 14:02:00,
2013-11-06 09:07:00,53.2,28.2,31.03,ESE,117,6.0,9.0,38,0.00,,,0.00,meteohub,2013-11-06 14:07:00,
2013-11-06 09:12:00,53.8,28.0,31.03,SE,130,4.0,9.0,37,0.00,,,0.00,meteohub,2013-11-06 14:12:00,
2013-11-06 09:17:00,54.3,27.9,31.03,ESE,105,4.0,8.0,36,0.00,,,0.00,meteohub,2013-11-06 14:17:00,
2013-11-06 09:22:00,54.5,28.0,31.03,ESE,107,8.0,8.0,36,0.00,,,0.00,meteohub,2013-11-06 14:22:00,
2013-11-06 09:28:00,54.9,27.7,31.03,East,100,6.0,11.0,35,0.00,,,0.00,meteohub,2013-11-06 14:28:00,
2013-11-06 09:33:00,55.4,27.5,31.03,ESE,107,9.0,11.0,34,0.00,,,0.00,meteohub,2013-11-06 14:33:00,
2013-11-06 09:38:00,55.6,26.2,31.03,ESE,120,6.0,11.0,32,0.00,,,0.00,meteohub,2013-11-06 14:38:00,
2013-11-06 09:43:00,55.4,25.3,31.03,ESE,103,6.0,11.0,31,0.00,,,0.00,meteohub,2013-11-06 14:43:00,
2013-11-06 09:49:00,55.8,26.4,31.03,East,84,8.0,10.0,32,0.00,,,0.00,meteohub,2013-11-06 14:49:00,
2013-11-06 09:54:00,56.1,25.2,31.03,ESE,106,5.0,9.0,30,0.00,,,0.00,meteohub,2013-11-06 14:54:00,
2013-11-06 09:59:00,56.5,24.6,31.03,SE,124,6.0,8.0,29,0.00,,,0.00,meteohub,2013-11-06 14:59:00,
2013-11-06 10:05:00,56.7,23.9,31.03,East,93,6.0,8.0,28,0.00,,,0.00,meteohub,2013-11-06 15:05:00,
2013-11-06 10:10:00,56.5,24.6,31.03,East,89,6.0,8.0,29,0.00,,,0.00,meteohub,2013-11-06 15:10:00,
2013-11-06 10:15:00,56.8,25.0,31.03,East,88,8.0,8.0,29,0.00,,,0.00,meteohub,2013-11-06 15:15:00,
2013-11-06 10:21:00,57.2,24.4,31.03,East,100,6.0,8.0,28,0.00,,,0.00,meteohub,2013-11-06 15:21:00,
2013-11-06 10:26:00,57.6,23.9,31.03,ESE,102,8.0,9.0,27,0.00,,,0.00,meteohub,2013-11-06 15:26:00,
2013-11-06 10:31:00,57.7,23.9,31.03,ESE,105,6.0,9.0,27,0.00,,,0.00,meteohub,2013-11-06 15:31:00,
2013-11-06 10:37:00,57.9,24.1,31.03,ESE,108,6.0,9.0,27,0.00,,,0.00,meteohub,2013-11-06 15:37:00,
2013-11-06 10:42:00,58.1,24.3,31.03,ENE,63,6.0,10.0,27,0.00,,,0.00,meteohub,2013-11-06 15:42:00,
2013-11-06 10:47:00,58.3,23.5,31.03,ESE,107,10.0,10.0,26,0.00,,,0.00,meteohub,2013-11-06 15:47:00,
2013-11-06 10:52:00,57.9,24.1,31.03,East,87,6.0,10.0,27,0.00,,,0.00,meteohub,2013-11-06 15:52:00,
2013-11-06 10:58:00,57.9,23.2,31.03,ESE,103,8.0,10.0,26,0.00,,,0.00,meteohub,2013-11-06 15:58:00,
2013-11-06 11:03:00,58.1,24.3,31.03,East,86,6.0,10.0,27,0.00,,,0.00,meteohub,2013-11-06 16:03:00,
2013-11-06 11:08:00,58.3,23.5,31.03,ESE,111,5.0,10.0,26,0.00,,,0.00,meteohub,2013-11-06 16:08:00,
2013-11-06 11:13:00,58.5,23.7,31.03,East,90,8.0,10.0,26,0.00,,,0.00,meteohub,2013-11-06 16:13:00,
2013-11-06 11:18:00,58.5,23.7,31.03,ESE,103,5.0,10.0,26,0.00,,,0.00,meteohub,2013-11-06 16:18:00,
2013-11-06 11:23:00,58.3,23.5,31.03,ESE,106,5.0,9.0,26,0.00,,,0.00,meteohub,2013-11-06 16:23:00,
2013-11-06 11:29:00,58.5,23.7,31.03,ESE,120,8.0,10.0,26,0.00,,,0.00,meteohub,2013-11-06 16:29:00,
2013-11-06 11:34:00,58.8,24.1,31.03,SE,131,6.0,10.0,26,0.00,,,0.00,meteohub,2013-11-06 16:34:00,
2013-11-06 11:39:00,58.8,24.1,31.03,East,100,6.0,11.0,26,0.00,,,0.00,meteohub,2013-11-06 16:39:00,
2013-11-06 11:44:00,59.0,23.2,31.03,East,95,8.0,11.0,25,0.00,,,0.00,meteohub,2013-11-06 16:44:00,
2013-11-06 11:49:00,59.2,23.4,31.03,ESE,113,8.0,11.0,25,0.00,,,0.00,meteohub,2013-11-06 16:49:00,
2013-11-06 11:55:00,59.2,23.4,31.03,SE,129,9.0,11.0,25,0.00,,,0.00,meteohub,2013-11-06 16:55:00,
2013-11-06 12:00:00,59.0,23.2,31.03,ESE,116,8.0,12.0,25,0.00,,,0.00,meteohub,2013-11-06 17:00:00,
2013-11-06 12:05:00,59.4,23.5,31.03,SE,129,5.0,12.0,25,0.00,,,0.00,meteohub,2013-11-06 17:05:00,
2013-11-06 12:10:00,60.1,24.1,31.03,ESE,121,8.0,11.0,25,0.00,,,0.00,meteohub,2013-11-06 17:10:00,
2013-11-06 12:15:00,60.3,24.3,31.03,ESE,122,6.0,11.0,25,0.00,,,0.00,meteohub,2013-11-06 17:15:00,
2013-11-06 12:21:00,60.1,24.1,31.03,ENE,58,6.0,11.0,25,0.00,,,0.00,meteohub,2013-11-06 17:21:00,
2013-11-06 12:26:00,59.9,23.9,31.03,ESE,111,5.0,11.0,25,0.00,,,0.00,meteohub,2013-11-06 17:26:00,
2013-11-06 12:32:00,60.1,24.1,31.03,East,85,8.0,11.0,25,0.00,,,0.00,meteohub,2013-11-06 17:32:00,
2013-11-06 12:37:00,60.1,24.1,31.03,East,87,9.0,11.0,25,0.00,,,0.00,meteohub,2013-11-06 17:37:00,
2013-11-06 12:42:00,59.7,23.9,31.03,ENE,75,8.0,11.0,25,0.00,,,0.00,meteohub,2013-11-06 17:42:00,
2013-11-06 12:47:00,59.7,23.9,31.03,East,92,4.0,10.0,25,0.00,,,0.00,meteohub,2013-11-06 17:47:00,
2013-11-06 12:53:00,59.7,23.9,31.03,ESE,114,8.0,10.0,25,0.00,,,0.00,meteohub,2013-11-06 17:53:00,
2013-11-06 12:58:00,60.1,24.1,31.03,ESE,117,5.0,9.0,25,0.00,,,0.00,meteohub,2013-11-06 17:58:00,
2013-11-06 13:03:00,60.1,24.1,31.03,ENE,72,6.0,8.0,25,0.00,,,0.00,meteohub,2013-11-06 18:03:00,
2013-11-06 13:08:00,60.1,25.2,31.03,ESE,103,5.0,8.0,26,0.00,,,0.00,meteohub,2013-11-06 18:08:00,
2013-11-06 13:13:00,60.4,25.3,31.03,ESE,105,4.0,8.0,26,0.00,,,0.00,meteohub,2013-11-06 18:13:00,
2013-11-06 13:19:00,60.4,25.3,31.03,East,79,8.0,8.0,26,0.00,,,0.00,meteohub,2013-11-06 18:19:00,
2013-11-06 13:24:00,60.6,25.5,31.03,ESE,108,8.0,8.0,26,0.00,,,0.00,meteohub,2013-11-06 18:24:00,
2013-11-06 13:29:00,60.4,26.2,31.03,ESE,108,6.0,9.0,27,0.00,,,0.00,meteohub,2013-11-06 18:29:00,
2013-11-06 13:34:00,60.6,27.3,31.03,East,98,8.0,10.0,28,0.00,,,0.00,meteohub,2013-11-06 18:34:00,
2013-11-06 13:39:00,60.8,26.6,31.03,East,95,8.0,10.0,27,0.00,,,0.00,meteohub,2013-11-06 18:39:00,
2013-11-06 13:45:00,61.2,27.0,31.03,SE,129,8.0,11.0,27,0.00,,,0.00,meteohub,2013-11-06 18:45:00,
2013-11-06 13:50:00,61.2,26.1,31.03,East,96,17.0,17.0,26,0.00,,,0.00,meteohub,2013-11-06 18:50:00,
2013-11-06 13:55:00,60.8,25.7,31.03,ESE,112,12.0,17.0,26,0.00,,,0.00,meteohub,2013-11-06 18:55:00,
2013-11-06 14:00:00,60.1,26.1,31.03,ESE,107,13.0,17.0,27,0.00,,,0.00,meteohub,2013-11-06 19:00:00,
2013-11-06 14:05:00,60.1,26.8,31.03,ESE,122,12.0,17.0,28,0.00,,,0.00,meteohub,2013-11-06 19:05:00,
2013-11-06 14:11:00,60.3,27.9,31.03,ESE,115,9.0,17.0,29,0.00,,,0.00,meteohub,2013-11-06 19:11:00,
2013-11-06 14:16:00,60.6,27.3,31.03,ESE,105,13.0,16.0,28,0.00,,,0.00,meteohub,2013-11-06 19:16:00,
2013-11-06 14:21:00,60.6,28.2,31.03,SE,126,13.0,13.0,29,0.00,,,0.00,meteohub,2013-11-06 19:21:00,
2013-11-06 14:26:00,60.4,28.0,31.03,ESE,106,9.0,13.0,29,0.00,,,0.00,meteohub,2013-11-06 19:26:00,
2013-11-06 14:31:00,60.3,28.8,31.03,SE,131,11.0,15.0,30,0.00,,,0.00,meteohub,2013-11-06 19:31:00,
2013-11-06 14:37:00,60.1,29.3,31.03,East,90,10.0,15.0,31,0.00,,,0.00,meteohub,2013-11-06 19:37:00,
2013-11-06 14:42:00,59.4,29.5,31.03,ESE,121,12.0,16.0,32,0.00,,,0.00,meteohub,2013-11-06 19:42:00,
2013-11-06 14:47:00,60.1,31.6,31.03,ESE,108,10.0,16.0,34,0.00,,,0.00,meteohub,2013-11-06 19:47:00,
2013-11-06 14:52:00,60.3,31.1,31.03,ESE,112,8.0,16.0,33,0.00,,,0.00,meteohub,2013-11-06 19:52:00,
2013-11-06 14:57:00,60.3,30.2,31.03,ESE,122,13.0,16.0,32,0.00,,,0.00,meteohub,2013-11-06 19:57:00,
2013-11-06 15:02:00,59.5,30.4,31.03,ESE,108,11.0,14.0,33,0.00,,,0.00,meteohub,2013-11-06 20:02:00,
2013-11-06 15:07:00,59.4,30.2,31.03,SE,138,11.0,15.0,33,0.00,,,0.00,meteohub,2013-11-06 20:07:00,
2013-11-06 15:12:00,59.4,30.9,31.03,ESE,110,10.0,15.0,34,0.00,,,0.00,meteohub,2013-11-06 20:12:00,
2013-11-06 15:17:00,59.2,30.7,31.03,ESE,119,9.0,15.0,34,0.00,,,0.00,meteohub,2013-11-06 20:17:00,
2013-11-06 15:22:00,59.4,30.9,31.03,ESE,107,13.0,13.0,34,0.00,,,0.00,meteohub,2013-11-06 20:22:00,
2013-11-06 15:27:00,59.7,32.0,31.03,ESE,117,9.0,13.0,35,0.00,,,0.00,meteohub,2013-11-06 20:27:00,
2013-11-06 15:32:00,59.5,31.1,31.03,ESE,114,8.0,13.0,34,0.00,,,0.00,meteohub,2013-11-06 20:32:00,
2013-11-06 15:37:00,59.4,31.6,31.03,SE,134,8.0,13.0,35,0.00,,,0.00,meteohub,2013-11-06 20:37:00,
2013-11-06 15:42:00,59.2,31.5,31.03,SE,133,6.0,11.0,35,0.00,,,0.00,meteohub,2013-11-06 20:42:00,
2013-11-06 15:47:00,59.0,31.5,31.03,SE,133,8.0,11.0,35,0.00,,,0.00,meteohub,2013-11-06 20:47:00,
2013-11-06 15:52:00,58.8,31.3,31.03,ESE,116,8.0,11.0,35,0.00,,,0.00,meteohub,2013-11-06 20:52:00,
2013-11-06 15:57:00,58.3,32.2,31.03,ESE,117,8.0,11.0,37,0.00,,,0.00,meteohub,2013-11-06 20:57:00,
2013-11-06 16:02:00,57.9,32.5,31.03,SE,136,6.0,11.0,38,0.00,,,0.00,meteohub,2013-11-06 21:02:00,
2013-11-06 16:08:00,57.6,32.7,31.03,ESE,123,8.0,11.0,39,0.00,,,0.00,meteohub,2013-11-06 21:08:00,
2013-11-06 16:13:00,57.4,33.3,31.03,SE,132,8.0,11.0,40,0.00,,,0.00,meteohub,2013-11-06 21:13:00,
2013-11-06 16:18:00,57.4,33.8,31.03,ESE,120,10.0,11.0,41,0.00,,,0.00,meteohub,2013-11-06 21:18:00,
2013-11-06 16:23:00,57.4,35.6,31.03,ESE,114,8.0,11.0,44,0.00,,,0.00,meteohub,2013-11-06 21:23:00,
2013-11-06 16:28:00,57.2,36.0,31.03,ESE,109,9.0,13.0,45,0.00,,,0.00,meteohub,2013-11-06 21:28:00,
2013-11-06 16:34:00,57.2,36.0,31.03,ESE,117,10.0,13.0,45,0.00,,,0.00,meteohub,2013-11-06 21:34:00,
2013-11-06 16:39:00,57.4,36.7,31.03,SE,125,8.0,13.0,46,0.00,,,0.00,meteohub,2013-11-06 21:39:00,
2013-11-06 16:44:00,57.4,37.4,31.03,ESE,123,8.0,12.0,47,0.00,,,0.00,meteohub,2013-11-06 21:44:00,
2013-11-06 16:49:00,57.4,37.4,31.03,ESE,110,6.0,12.0,47,0.00,,,0.00,meteohub,2013-11-06 21:49:00,
2013-11-06 16:54:00,57.4,37.9,31.03,ESE,110,8.0,11.0,48,0.00,,,0.00,meteohub,2013-11-06 21:54:00,
2013-11-06 17:00:00,57.2,37.8,31.03,East,92,8.0,13.0,48,0.00,,,0.00,meteohub,2013-11-06 22:00:00,
2013-11-06 17:05:00,57.2,37.8,31.03,ESE,108,8.0,13.0,48,0.00,,,0.00,meteohub,2013-11-06 22:05:00,
2013-11-06 17:10:00,57.2,38.3,31.03,SE,125,10.0,13.0,49,0.00,,,0.00,meteohub,2013-11-06 22:10:00,
2013-11-06 17:15:00,57.2,38.7,31.03,ESE,105,10.0,13.0,50,0.00,,,0.00,meteohub,2013-11-06 22:15:00,
2013-11-06 17:20:00,57.2,39.2,31.03,ESE,104,10.0,11.0,51,0.00,,,0.00,meteohub,2013-11-06 22:20:00,
2013-11-06 17:26:00,57.2,39.7,31.03,ESE,110,11.0,11.0,52,0.00,,,0.00,meteohub,2013-11-06 22:26:00,
2013-11-06 17:31:00,57.2,40.3,31.03,ESE,117,8.0,12.0,53,0.00,,,0.00,meteohub,2013-11-06 22:31:00,
2013-11-06 17:36:00,57.0,41.0,31.03,ESE,122,8.0,12.0,55,0.00,,,0.00,meteohub,2013-11-06 22:36:00,
2013-11-06 17:41:00,57.0,41.9,31.03,East,97,11.0,12.0,57,0.00,,,0.00,meteohub,2013-11-06 22:41:00,
2013-11-06 17:46:00,56.8,42.3,31.03,ESE,104,11.0,11.0,58,0.00,,,0.00,meteohub,2013-11-06 22:46:00,
2013-11-06 17:52:00,56.8,42.6,31.03,ESE,114,9.0,11.0,59,0.00,,,0.00,meteohub,2013-11-06 22:52:00,
2013-11-06 17:57:00,56.8,43.2,31.03,ESE,102,11.0,11.0,60,0.00,,,0.00,meteohub,2013-11-06 22:57:00,
2013-11-06 18:02:00,56.8,43.2,31.03,ESE,108,9.0,11.0,60,0.00,,,0.00,meteohub,2013-11-06 23:02:00,
2013-11-06 18:07:00,56.8,43.5,31.03,ESE,112,11.0,12.0,61,0.00,,,0.00,meteohub,2013-11-06 23:07:00,
2013-11-06 18:12:00,56.8,43.9,31.03,East,97,8.0,12.0,62,0.00,,,0.00,meteohub,2013-11-06 23:12:00,
2013-11-06 18:17:00,56.8,43.9,31.03,East,83,9.0,12.0,62,0.00,,,0.00,meteohub,2013-11-06 23:17:00,
2013-11-06 18:22:00,56.8,44.4,31.03,ESE,105,8.0,11.0,63,0.00,,,0.00,meteohub,2013-11-06 23:22:00,
2013-11-06 18:27:00,56.8,44.4,31.03,East,99,9.0,11.0,63,0.00,,,0.00,meteohub,2013-11-06 23:27:00,
2013-11-06 18:32:00,56.8,44.8,31.03,ESE,114,8.0,11.0,64,0.00,,,0.00,meteohub,2013-11-06 23:32:00,
2013-11-06 18:37:00,56.8,45.1,31.03,East,93,9.0,11.0,65,0.00,,,0.00,meteohub,2013-11-06 23:37:00,
2013-11-06 18:42:00,57.0,45.3,31.03,ESE,106,8.0,11.0,65,0.00,,,0.00,meteohub,2013-11-06 23:42:00,
2013-11-06 18:47:00,57.0,45.3,31.03,ESE,102,10.0,11.0,65,0.00,,,0.00,meteohub,2013-11-06 23:47:00,
2013-11-06 18:52:00,56.8,45.1,31.03,East,101,10.0,11.0,65,0.00,,,0.00,meteohub,2013-11-06 23:52:00,
2013-11-06 18:57:00,57.0,45.3,31.03,East,89,8.0,11.0,65,0.00,,,0.00,meteohub,2013-11-06 23:57:00,
2013-11-06 19:02:00,57.0,45.9,31.03,ESE,115,8.0,11.0,66,0.00,,,0.00,meteohub,2013-11-07 00:02:00,
2013-11-06 19:07:00,57.0,45.9,31.03,ESE,110,11.0,11.0,66,0.00,,,0.00,meteohub,2013-11-07 00:07:00,
2013-11-06 19:12:00,57.0,45.9,31.03,East,101,9.0,11.0,66,0.00,,,0.00,meteohub,2013-11-07 00:12:00,
2013-11-06 19:17:00,57.0,46.2,31.03,East,90,9.0,11.0,67,0.00,,,0.00,meteohub,2013-11-07 00:17:00,
2013-11-06 19:22:00,57.2,46.4,31.03,East,96,9.0,11.0,67,0.00,,,0.00,meteohub,2013-11-07 00:22:00,
2013-11-06 19:27:00,57.2,46.4,31.03,ESE,110,8.0,11.0,67,0.00,,,0.00,meteohub,2013-11-07 00:27:00,
2013-11-06 19:32:00,57.2,46.4,31.03,ESE,104,8.0,12.0,67,0.00,,,0.00,meteohub,2013-11-07 00:32:00,
2013-11-06 19:37:00,57.4,46.9,31.03,ESE,106,11.0,12.0,68,0.00,,,0.00,meteohub,2013-11-07 00:37:00,
2013-11-06 19:42:00,57.4,46.9,31.03,East,82,9.0,12.0,68,0.00,,,0.00,meteohub,2013-11-07 00:42:00,
2013-11-06 19:47:00,57.4,46.9,31.03,East,99,8.0,13.0,68,0.00,,,0.00,meteohub,2013-11-07 00:47:00,
2013-11-06 19:52:00,57.4,46.9,31.03,East,93,11.0,13.0,68,0.00,,,0.00,meteohub,2013-11-07 00:52:00,
2013-11-06 19:58:00,57.4,46.9,31.03,ESE,107,11.0,13.0,68,0.00,,,0.00,meteohub,2013-11-07 00:58:00,
2013-11-06 20:03:00,57.4,46.9,31.03,ESE,111,12.0,13.0,68,0.00,,,0.00,meteohub,2013-11-07 01:03:00,
2013-11-06 20:08:00,57.6,47.5,31.03,ESE,106,11.0,12.0,69,0.00,,,0.00,meteohub,2013-11-07 01:08:00,
2013-11-06 20:13:00,57.6,47.5,31.03,ESE,106,11.0,13.0,69,0.00,,,0.00,meteohub,2013-11-07 01:13:00,
2013-11-06 20:19:00,57.7,48.0,31.03,ESE,112,11.0,13.0,70,0.00,,,0.00,meteohub,2013-11-07 01:19:00,
2013-11-06 20:24:00,57.9,48.6,31.03,ESE,109,13.0,13.0,71,0.00,,,0.00,meteohub,2013-11-07 01:24:00,
2013-11-06 20:29:00,57.9,48.6,31.03,ESE,115,13.0,15.0,71,0.00,,,0.00,meteohub,2013-11-07 01:29:00,
2013-11-06 20:34:00,58.1,48.4,31.03,SE,126,13.0,15.0,70,0.00,,,0.00,meteohub,2013-11-07 01:34:00,
2013-11-06 20:40:00,58.1,48.4,31.03,ESE,103,11.0,15.0,70,0.00,,,0.00,meteohub,2013-11-07 01:40:00,
2013-11-06 20:45:00,58.1,48.4,31.03,SE,124,10.0,15.0,70,0.00,,,0.00,meteohub,2013-11-07 01:45:00,
2013-11-06 20:50:00,58.1,48.4,31.03,ESE,109,11.0,15.0,70,0.00,,,0.00,meteohub,2013-11-07 01:50:00,
2013-11-06 20:55:00,58.1,48.4,31.03,East,99,11.0,15.0,70,0.00,,,0.00,meteohub,2013-11-07 01:55:00,
2013-11-06 21:00:00,58.3,48.6,31.03,ESE,116,11.0,15.0,70,0.00,,,0.00,meteohub,2013-11-07 02:00:00,
2013-11-06 21:06:00,58.3,48.9,31.03,ESE,115,9.0,15.0,71,0.00,,,0.00,meteohub,2013-11-07 02:06:00,
2013-11-06 21:11:00,58.3,48.9,31.03,East,93,9.0,13.0,71,0.00,,,0.00,meteohub,2013-11-07 02:11:00,
2013-11-06 21:16:00,58.3,48.9,31.03,ESE,104,11.0,12.0,71,0.00,,,0.00,meteohub,2013-11-07 02:16:00,
2013-11-06 21:21:00,58.5,49.1,31.03,ESE,102,9.0,13.0,71,0.00,,,0.00,meteohub,2013-11-07 02:21:00,
2013-11-06 21:26:00,58.5,49.1,31.03,East,100,11.0,13.0,71,0.00,,,0.00,meteohub,2013-11-07 02:26:00,
2013-11-06 21:32:00,58.5,49.1,31.03,East,97,12.0,13.0,71,0.00,,,0.00,meteohub,2013-11-07 02:32:00,
2013-11-06 21:37:00,58.5,49.1,31.03,ESE,112,8.0,13.0,71,0.00,,,0.00,meteohub,2013-11-07 02:37:00,
2013-11-06 21:42:00,58.5,49.5,31.03,ESE,112,8.0,13.0,72,0.00,,,0.00,meteohub,2013-11-07 02:42:00,
2013-11-06 21:47:00,58.6,49.6,31.03,ESE,119,10.0,13.0,72,0.00,,,0.00,meteohub,2013-11-07 02:47:00,
2013-11-06 21:52:00,58.8,50.5,31.03,ESE,102,10.0,13.0,74,0.00,,,0.00,meteohub,2013-11-07 02:52:00,
2013-11-06 21:57:00,58.8,50.2,31.03,East,91,8.0,13.0,73,0.00,,,0.00,meteohub,2013-11-07 02:57:00,
2013-11-06 22:02:00,58.8,50.5,31.03,SE,126,8.0,13.0,74,0.00,,,0.00,meteohub,2013-11-07 03:02:00,
2013-11-06 22:07:00,59.0,51.1,31.03,SE,129,11.0,13.0,75,0.00,,,0.00,meteohub,2013-11-07 03:07:00,
2013-11-06 22:12:00,58.8,50.5,31.03,SE,139,6.0,13.0,74,0.00,,,0.00,meteohub,2013-11-07 03:12:00,
2013-11-06 22:17:00,59.2,50.5,31.03,SE,145,11.0,13.0,73,0.00,,,0.00,meteohub,2013-11-07 03:17:00,
2013-11-06 22:22:00,59.0,47.3,31.03,SSE,149,10.0,15.0,65,0.00,,,0.00,meteohub,2013-11-07 03:22:00,
2013-11-06 22:28:00,59.2,45.7,31.03,SE,131,10.0,15.0,61,0.00,,,0.00,meteohub,2013-11-07 03:28:00,
2013-11-06 22:33:00,59.2,45.3,31.03,SSE,153,13.0,15.0,60,0.00,,,0.00,meteohub,2013-11-07 03:33:00,
2013-11-06 22:38:00,59.2,44.8,31.03,SSE,149,12.0,14.0,59,0.00,,,0.00,meteohub,2013-11-07 03:38:00,
2013-11-06 22:43:00,59.2,44.8,31.03,SSE,151,12.0,14.0,59,0.00,,,0.00,meteohub,2013-11-07 03:43:00,
2013-11-06 22:49:00,59.2,44.8,31.03,SSE,149,8.0,14.0,59,0.00,,,0.00,meteohub,2013-11-07 03:49:00,
2013-11-06 22:54:00,59.2,44.8,31.03,ESE,121,11.0,15.0,59,0.00,,,0.00,meteohub,2013-11-07 03:54:00,
2013-11-06 22:59:00,59.4,45.0,31.03,SE,139,13.0,15.0,59,0.00,,,0.00,meteohub,2013-11-07 03:59:00,
2013-11-06 23:04:00,59.4,45.0,31.03,SE,133,14.0,15.0,59,0.00,,,0.00,meteohub,2013-11-07 04:04:00,
2013-11-06 23:09:00,59.2,45.3,31.03,SSE,159,10.0,15.0,60,0.00,,,0.00,meteohub,2013-11-07 04:09:00,
2013-11-06 23:15:00,59.2,45.3,31.03,SE,131,12.0,15.0,60,0.00,,,0.00,meteohub,2013-11-07 04:15:00,
2013-11-06 23:20:00,59.2,45.7,31.03,SE,134,8.0,15.0,61,0.00,,,0.00,meteohub,2013-11-07 04:20:00,
2013-11-06 23:25:00,59.0,45.5,31.03,SE,134,9.0,15.0,61,0.00,,,0.00,meteohub,2013-11-07 04:25:00,
2013-11-06 23:30:00,59.0,45.5,31.03,SSE,158,10.0,15.0,61,0.00,,,0.00,meteohub,2013-11-07 04:30:00,
2013-11-06 23:35:00,58.8,45.9,31.03,SSE,157,9.0,13.0,62,0.00,,,0.00,meteohub,2013-11-07 04:35:00,
2013-11-06 23:41:00,58.8,45.9,31.03,South,179,11.0,12.0,62,0.00,,,0.00,meteohub,2013-11-07 04:41:00,
2013-11-06 23:46:00,58.8,45.3,31.03,South,183,8.0,12.0,61,0.00,,,0.00,meteohub,2013-11-07 04:46:00,
2013-11-06 23:51:00,58.8,45.0,31.03,SSE,168,12.0,12.0,60,0.00,,,0.00,meteohub,2013-11-07 04:51:00,
2013-11-06 23:57:00,58.8,44.6,31.03,SSE,167,8.0,11.0,59,0.00,,,0.00,meteohub,2013-11-07 04:57:00,